Flag for Greece Weather past 2 weeks in Chania, Crete, Greece

Now
75 °F

Clear.


Feels Like: 77 °F
Forecast: 71 / 93 °F
Wind: No wind

Location: Souda Airport

Current Time: Sep 5, 2015 at 4:46:18 AM

Latest Report: Sep 5, 2015 at 3:50 AM


Visibility: 10 mi

Pressure: 29.92 "Hg

Humidity: 61%

Dew point: 61 °F

Location of ChaniaLocation

Historic Weather in Chania — Graph

°F

Chania temperature yesterday

Maximum temperature yesterday: 93 °F (at 1:50 PM)
Minimum temperature yesterday: 73 °F (at 4:50 AM)
Average temperature yesterday: 82 °F

Past Weeks' High & Low Weather Summary

 TemperatureHumidityPressure
High93 °F (Sep 4, 1:50 PM)100% (Sep 1, 4:50 AM)30.04 "Hg (Sep 1, 4:50 AM)
Low68 °F (Aug 29, 3:50 AM)40% (Aug 29, 1:50 PM)29.86 "Hg (Aug 22, 3:50 AM)
Average79 °F68%29.94 "Hg
* Reported Aug 21 3:20 AM — Sep 5 3:20 AM, Chania, Weather by CustomWeather, © 2015

Note: Actual official high and low records may vary slightly from our data, if they occured in-between our weather recording intervals... More about our weather records

Advertising

Chania weather history for previous 24 hours

 ConditionsComfort  
Time TempWeatherWind HumidityBarometerVisibility
3:20 AM
Sat, Sep 5
75 °FClear.No wind61%29.92 "Hg10 mi
2:50 AM75 °FClear.No wind69%29.92 "Hg10 mi
2:20 AM75 °FClear.No wind69%29.92 "Hg10 mi
1:50 AM75 °FClear.No wind74%29.92 "Hg10 mi
1:20 AM75 °FClear.No wind78%29.92 "Hg10 mi
12:50 AM73 °FClear.5 mph83%29.92 "Hg10 mi
12:20 AM75 °FClear.No wind83%29.92 "Hg10 mi
11:50 PM
Fri, Sep 4
75 °FClear.No wind83%29.92 "Hg10 mi
11:20 PM77 °FClear.No wind79%29.92 "Hg10 mi
10:50 PM77 °FClear.No wind79%29.92 "Hg10 mi
10:20 PM77 °FClear.No wind79%29.92 "Hg10 mi
9:50 PM77 °FClear.No wind79%29.92 "Hg10 mi
9:20 PM79 °FClear.No wind74%29.92 "Hg10 mi
8:50 PM79 °FClear.No wind84%29.92 "Hg10 mi
8:20 PM79 °FSunny.5 mph79%29.92 "Hg10 mi
7:50 PM81 °FSunny.5 mph74%29.92 "Hg10 mi
7:20 PM82 °FSunny.7 mph70%29.92 "Hg10 mi
6:50 PM84 °FSunny.7 mph66%29.92 "Hg10 mi
6:20 PM86 °FSunny.6 mph62%29.92 "Hg10 mi
5:50 PM88 °FSunny.8 mph59%29.92 "Hg10 mi
5:20 PM90 °FSunny.7 mph49%29.92 "Hg10 mi
4:50 PM91 °FSunny.7 mph46%29.92 "Hg10 mi
4:20 PM91 °FSunny.8 mph41%29.92 "Hg10 mi
3:50 PM91 °FSunny.8 mph44%29.92 "Hg10 mi
3:20 PM91 °FSunny.9 mph49%29.92 "Hg10 mi
2:50 PM91 °FSunny.9 mph46%29.92 "Hg10 mi
2:20 PM91 °FSunny.8 mph46%29.92 "Hg10 mi
1:50 PM93 °FSunny.5 mph41%29.92 "Hg10 mi
1:20 PM91 °FSunny.6 mph44%29.92 "Hg10 mi
12:50 PM91 °FSunny.5 mph44%29.92 "Hg10 mi
12:20 PM91 °FSunny.7 mph46%29.92 "Hg10 mi
11:50 AM91 °FSunny.5 mph46%29.92 "Hg10 mi
11:20 AM88 °FSunny.6 mph55%29.92 "Hg10 mi
10:50 AM88 °FSunny.8 mph55%29.92 "Hg10 mi
10:20 AM82 °FSunny.8 mph66%29.92 "Hg10 mi
9:50 AM82 °FSunny.5 mph66%29.92 "Hg10 mi
9:20 AM79 °FSunny.6 mph74%29.89 "Hg10 mi
8:50 AM79 °FSunny.5 mph74%29.89 "Hg10 mi
8:20 AM75 °FSunny.No wind83%29.89 "Hg10 mi
7:50 AM75 °FClear.No wind83%29.89 "Hg10 mi
7:20 AM73 °FPassing clouds.5 mph89%29.86 "HgN/A
6:50 AM73 °FClear.6 mph89%29.86 "Hg10 mi
5:50 AM73 °FPassing clouds.6 mph89%29.86 "HgN/A
5:20 AM73 °FPassing clouds.8 mph89%29.86 "HgN/A
4:50 AM73 °FPassing clouds.9 mph89%29.86 "HgN/A
4:20 AM75 °FPassing clouds.9 mph83%29.86 "HgN/A
Weather by CustomWeather, © 2015

See weather overviewHow to use our weather pages